7 * 24
多渠道服务支持
STARLINK-2187是美国SpaceX公司星链星座的一颗低轨通信卫星,于2021年5月15日发射升空。它依托星链星座组网,为全球提供高速低延迟宽带互联网服务,可支持视频通话、在线游戏、流媒体等高需求场景,能覆盖地面通信难以触达的偏远区域。作为星链计划的组成部分,该卫星采用紧凑型设计,由猎鹰9号火箭送入轨道,助力星链逐步实现全球互联网覆盖目标,同时也推动了低轨卫星通信技术的创新发展。
美国
(US)
| 数据来源 | 国际轨道数据 |
| 星历时间: | 2026-09-11T14:00:02+0800 9小时前 查看轨道信息 |
| 半长轴: | 6699.109km |
| 偏心率: | 0.0007315 |
| 轨道倾角: | 53.148° |
| 近地点辐角 | 8.422° |
| 升交点赤经 | 309.514° |
| 平近点角 | 229.210° |
| 近地点: | 316.071km |
| 远地点: | 325.873km |
| 周期: | 90.946分钟 |
| 每日圈数: | 15.83351 |